This is the latest recevied weather packets stored in our database for station/object KW4UJ. If no packets are shown the sender has not sent any weather packets the latest 10 day(s).
| Time | Temp. | Humidity | Pressure | Rain* | Wind** | Luminosity | Snow |
|---|---|---|---|---|---|---|---|
| 1777898349 | 13.89° C | 51% | 1014.8 hPa | 0 mm | - | 220 W/m² | - |
| 1777898048 | 13.89° C | 53% | 1014.9 hPa | 0 mm | - | 120 W/m² | - |
| 1777897743 | 13.89° C | 52% | 1014.9 hPa | 0 mm | - | 154 W/m² | - |
| 1777897439 | 13.33° C | 55% | 1014.9 hPa | 0 mm | - | 181 W/m² | - |
| 1777897136 | 12.78° C | 56% | 1014.9 hPa | 0 mm | - | 162 W/m² | - |
| 1777896832 | 12.22° C | 58% | 1014.9 hPa | 0 mm | - | 151 W/m² | - |
| 1777896529 | 12.22° C | 59% | 1014.7 hPa | 0 mm | - | 150 W/m² | - |
| 1777896226 | 12.22° C | 59% | 1014.8 hPa | 0 mm | - | 139 W/m² | - |
| 1777895924 | 11.67° C | 60% | 1014.7 hPa | 0 mm | - | 127 W/m² | - |
| 1777895622 | 11.11° C | 60% | 1015 hPa | 0 mm | - | 87 W/m² | - |
| 1777895319 | 10.56° C | 62% | 1014.8 hPa | 0 mm | - | 102 W/m² | - |
| 1777895017 | 10.56° C | 65% | 1014.9 hPa | 0 mm | - | 93 W/m² | - |
| 1777894714 | 10.56° C | 64% | 1015 hPa | 0 mm | - | 47 W/m² | - |
| 1777894410 | 10.56° C | 63% | 1015.2 hPa | 0 mm | - | 47 W/m² | - |
| 1777894108 | 10.56° C | 63% | 1015 hPa | 0 mm | - | 71 W/m² | - |
| 1777893805 | 10.56° C | 64% | 1015.2 hPa | 0 mm | - | 58 W/m² | - |
| 1777893501 | 10° C | 65% | 1015.1 hPa | 0 mm | - | 50 W/m² | - |
| 1777893197 | 9.44° C | 67% | 1015 hPa | 0 mm | - | 56 W/m² | - |
| 1777892894 | 8.89° C | 69% | 1014.9 hPa | 0 mm | - | 44 W/m² | - |
| 1777892591 | 8.33° C | 71% | 1015 hPa | 0 mm | - | 37 W/m² | - |
| 1777892286 | 7.78° C | 73% | 1015 hPa | 0 mm | - | 31 W/m² | - |
| 1777891983 | 7.78° C | 74% | 1015 hPa | 0 mm | - | 26 W/m² | - |
| 1777891681 | 7.78° C | 75% | 1014.9 hPa | 0 mm | - | 25 W/m² | - |
| 1777891376 | 7.78° C | 74% | 1014.8 hPa | 0 mm | - | 19 W/m² | - |
| 1777891072 | 7.78° C | 74% | 1014.9 hPa | 0 mm | - | 15 W/m² | - |
* Rain latest hour (hover to see other rain measurements)
** Current wind speed in m/s (hover to see current wind gust speed)